Temp
8 8 8 9 9 9 10 10 10 9 9 9 9 9 9 9 9 9 9 10 9 9 9 9 10 10 11 10 12 13 12 14 16 15 16 18 19 21 21 21 22 24 24 24 24
8 8 8 8 8 9 9 9 9 9 9 9 9 9 9 9 9 9 9 9 9 9 8 9 8 9 8 10 9 11 11 14 16 17 17 18 18 19 21 20 21 22 21 23 23
8 8 8 8 8 8 9 9 9 9 9 9 9 9 9 9 9 8 9 9 9 9 8 9 9 8 8 9 9 8 10 12 14 14 15 16 16 17 17 18 21 19 19 20 21
8 8 8 8 8 8 9 9 9 9 9 9 9 10 9 9 6 8 9 9 9 8 8 8 7 6 6 6 9 7 9 8 7 8 9 12 14 15 16 17 17 19 19 18 19
8 7 7 7 8 10 10 9 9 9 9 9 10 9 9 7 7 9 8 8 8 8 8 7 6 5 5 6 6 7 7 9 8 8 7 10 11 12 13 15 16 19 19 19 18
7 7 7 8 9 10 10 9 10 10 10 10 10 9 9 6 8 9 8 8 8 8 7 7 6 7 6 6 6 7 8 9 9 8 9 7 10 12 14 14 15 16 17 17 18
7 7 7 8 9 9 10 10 10 10 10 10 9 10 7 7 9 9 8 8 8 8 7 8 8 6 6 5 7 8 6 7 9 9 9 10 11 12 13 15 15 15 17 18 17
7 7 7 8 8 9 9 10 9 10 10 10 10 10 8 9 9 9 8 8 9 9 9 8 8 6 6 6 6 7 6 2 8 10 10 10 11 12 13 13 14 14 15 17 18
8 8 8 9 8 9 9 10 10 10 11 11 10 9 7 9 9 9 8 8 9 9 9 9 8 6 7 3 0 1 1 4 6 10 11 9 10 12 13 13 14 14 14 15 17
9 9 9 9 8 9 9 10 10 10 11 10 10 7 8 7 9 9 8 8 8 8 8 8 4 4 4 2 -0 -2 -1 4 6 8 8 9 9 11 13 13 14 15 14 15 16
10 9 9 9 9 9 9 9 7 7 9 8 8 7 8 9 10 9 7 8 7 6 4 5 2 1 3 4 4 4 4 4 6 9 7 8 9 10 12 12 12 14 15 15 15
11 10 9 9 8 9 9 5 5 5 7 9 9 9 9 9 7 8 7 5 4 4 4 2 0 4 5 5 4 4 -0 1 5 7 6 8 8 10 11 12 14 15 14 15 13
11 11 9 9 9 8 7 5 5 6 5 9 9 8 8 8 7 6 6 5 4 3 3 2 4 5 3 3 -1 0 -0 2 4 7 7 6 8 10 11 12 13 9 8 8 9
11 11 11 9 9 8 6 5 5 6 4 7 8 9 8 7 6 7 6 6 4 3 3 3 5 4 1 -1 2 -2 4 5 5 5 5 7 8 10 9 9 6 4 5 5 7
11 11 10 9 8 6 6 6 5 6 7 9 8 10 7 7 7 6 6 5 1 2 1 2 0 2 2 3 2 -0 3 4 5 5 5 6 7 5 6 5 4 4 4 4 4
11 11 10 9 8 7 6 6 5 8 5 7 7 5 5 6 6 6 4 5 4 3 3 1 4 2 2 4 2 1 -0 3 5 5 6 6 6 3 3 3 2 3 4 3 4
12 12 10 9 8 7 6 5 8 5 7 6 4 4 4 4 5 4 3 -0 -0 -2 -2 0 1 2 4 3 2 0 -2 0 3 2 6 6 3 2 1 1 2 1 2 2 3
12 12 11 10 9 8 6 6 7 7 6 5 4 3 5 3 3 3 2 -2 -1 -3 -4 -3 -0 -0 3 -0 2 2 1 -2 -1 3 6 5 1 0 1 0 1 1 1 2 2
12 12 11 11 11 9 4 4 3 4 4 3 3 3 3 4 2 2 0 -1 -3 -2 -4 -3 -2 1 4 1 0 0 0 1 -2 -1 4 3 2 1 2 0 0 0 1 1 1
11 11 11 13 12 11 4 6 3 4 4 3 3 3 2 2 1 0 0 2 1 1 0 -2 -1 1 3 3 1 0 2 0 2 0 1 -0 -0 -1 -1 -1 0 -0 -1 0 0
11 8 12 13 13 4 3 4 5 5 4 3 3 2 3 2 0 0 -0 2 1 0 0 -4 -4 0 2 -2 -3 1 -1 -1 -0 1 4 5 0 -4 -2 -2 -2 -1 -2 -1 -1
9 9 12 13 6 2 4 5 5 5 4 4 3 2 2 -0 -2 -0 1 2 1 0 -1 -1 -6 -3 -2 -2 -2 -4 -3 -6 -3 -1 1 1 -3 -4 -5 -4 -3 -2 -2 -1 -2
6 6 12 12 7 5 5 6 5 5 4 4 3 3 3 -0 -3 -3 0 2 1 0 -2 -2 -4 -3 1 0 0 -4 -3 -6 -8 -3 -5 -4 -3 -5 -8 -3 -3 -4 -3 -1 -1
5 8 5 4 4 6 5 7 6 4 4 3 2 3 3 1 1 -3 1 2 0 1 3 -0 -6 -3 -3 -2 -2 -3 -1 -5 -6 -6 -5 -4 -3 -5 -4 -5 -4 -5 -3 -3 -1
3 3 3 6 5 5 5 6 6 5 3 3 3 3 -2 -4 -3 -1 0 -1 -0 -0 -2 -4 -3 -0 -0 1 1 1 -1 -3 -5 -6 -4 -4 -4 -5 -4 -5 -4 -1 -2 -3 -2
3 1 0 0 4 6 6 2 6 5 4 2 0 3 -4 -4 -1 -3 -6 -6 -5 -5 -5 -4 -3 -2 -1 2 2 2 2 1 -1 -3 -4 -5 -4 -5 -6 -8 -5 -4 -5 -2 -2
4 4 1 4 4 4 2 2 3 4 4 3 0 -2 -5 -2 -3 -2 -3 -2 -3 -4 -6 -8 -6 -6 -3 1 1 -0 -1 -2 -5 -6 -4 -3 -3 -7 -5 -4 -5 -5 -4 -3 -2
Height
826 824 822 821 820 818 817 815 813 811 808 805 804 802 802 801 804 801 801 805 803 800 795 791 789 787 784 782 779 775 767 747 746 760 757 746 750 741 736 741 733 732 736 738 743
827 825 823 821 820 819 818 816 814 812 810 807 803 803 801 800 802 802 805 802 800 798 797 794 791 787 787 781 780 774 763 745 753 748 750 748 748 746 743 742 738 737 734 738 740
828 826 824 823 821 820 818 817 815 814 812 808 804 802 801 800 802 807 804 802 800 798 796 794 791 789 788 783 780 776 762 760 752 754 752 751 749 748 749 749 732 739 737 739 737
829 827 825 824 822 821 819 818 816 815 813 810 807 804 801 799 815 808 805 802 799 797 795 794 793 794 791 790 779 782 771 775 778 772 772 763 750 750 745 743 738 728 729 737 741
831 828 826 825 823 821 820 819 818 815 813 811 809 808 805 807 810 806 803 798 793 791 790 790 793 796 794 787 785 782 777 771 776 777 779 766 759 756 751 740 736 736 729 733 739
832 829 826 825 823 821 820 819 818 816 814 812 810 811 808 812 809 805 800 792 788 786 785 785 787 787 788 787 787 779 773 768 768 769 772 775 760 757 743 741 738 733 736 734 736
833 829 826 824 823 821 819 819 818 816 814 812 811 810 809 815 808 803 797 790 784 782 781 780 782 785 783 786 777 775 777 770 763 764 762 762 751 739 748 743 739 738 737 734 736
833 829 826 824 822 820 819 817 817 816 813 811 811 810 811 810 806 799 792 785 780 777 776 774 777 781 784 782 778 779 778 794 759 753 757 754 739 740 743 748 743 739 742 740 737
833 828 825 823 821 819 817 815 816 817 813 811 811 810 816 809 801 798 792 784 778 771 772 773 776 780 779 794 808 801 808 786 771 747 744 750 746 738 739 743 743 739 740 742 738
832 828 824 823 821 819 817 815 816 816 813 812 814 817 812 810 804 799 793 786 781 776 775 778 789 789 789 798 819 825 819 782 773 758 756 750 748 743 738 741 742 738 738 741 740
833 829 825 824 821 818 816 816 820 821 817 823 824 822 818 810 805 800 793 786 784 784 792 787 799 807 796 785 783 784 782 784 772 756 761 753 751 740 737 737 743 741 737 739 739
833 829 826 824 822 821 817 821 828 829 826 821 820 819 818 813 807 799 796 795 795 799 794 802 812 792 786 781 784 783 804 798 769 764 768 755 752 740 740 740 736 737 742 743 744
832 829 826 823 823 822 823 827 827 828 830 821 820 819 817 814 813 809 804 801 802 802 803 806 796 787 788 786 803 799 801 792 778 760 758 762 747 740 741 742 740 755 758 758 760
832 829 826 822 824 824 826 828 827 828 843 834 825 822 820 816 820 814 809 806 808 807 802 803 792 791 798 807 791 812 778 774 769 772 768 755 743 739 749 755 768 773 769 771 761
832 830 826 823 826 826 828 826 827 828 851 831 828 823 823 826 822 815 813 808 818 812 817 809 808 798 795 792 789 801 782 778 771 768 767 756 757 780 770 775 783 782 776 775 771
832 830 827 826 826 827 825 825 827 833 872 845 837 840 837 828 823 819 819 812 810 811 806 811 794 800 797 787 788 789 793 780 769 769 762 761 762 796 795 801 796 790 783 776 773
831 830 827 826 828 825 824 825 833 865 850 852 854 848 846 839 829 827 829 835 840 844 840 818 810 798 791 789 788 796 810 809 793 801 765 762 790 809 813 807 805 801 792 787 780
830 830 829 827 826 824 823 831 852 860 861 860 858 854 846 844 839 835 838 855 844 856 862 853 830 817 797 810 803 793 801 827 836 798 763 770 810 819 813 813 806 800 798 796 787
829 830 829 828 825 822 829 863 883 874 872 874 866 861 856 849 855 847 853 855 861 853 869 860 849 815 801 804 805 807 809 803 825 815 780 797 809 810 803 806 806 806 801 796 789
830 830 830 828 825 823 846 863 876 871 871 872 875 869 869 863 864 860 855 846 849 847 844 854 847 819 804 800 804 811 805 815 799 826 827 829 828 833 818 815 809 809 806 798 794
830 834 832 828 827 838 869 873 867 866 870 875 873 873 868 870 870 864 863 849 849 847 845 860 863 833 814 835 843 812 825 824 820 815 790 781 823 837 830 825 822 814 811 803 795
833 843 834 830 846 862 870 864 866 866 868 869 871 872 870 875 879 869 859 853 850 849 855 849 871 863 846 833 830 839 839 853 848 839 824 819 855 835 837 828 822 816 812 803 802
843 845 837 832 858 865 864 863 865 864 865 867 868 867 866 875 888 879 861 850 851 852 860 854 866 869 833 830 825 848 842 852 862 841 864 862 850 837 841 827 821 818 808 802 798
845 850 849 848 859 859 864 859 860 864 865 866 868 866 865 868 867 878 857 849 853 852 844 848 876 868 874 854 850 854 838 850 858 868 864 857 845 842 831 828 820 819 811 803 796
853 869 869 863 861 862 864 862 859 861 866 866 866 865 881 895 885 870 860 861 857 855 856 864 867 850 845 835 832 828 836 846 858 860 856 851 849 839 831 827 820 810 807 806 801
865 873 870 872 864 861 860 869 858 860 863 865 873 861 882 887 871 879 881 884 878 869 868 867 868 858 850 824 825 824 818 822 834 839 848 849 839 831 829 829 820 815 814 808 804
866 868 869 863 864 865 872 868 864 860 857 857 864 872 881 864 862 859 860 861 865 872 879 886 883 884 861 829 830 839 832 836 847 847 839 841 828 834 824 822 822 817 812 807 802
Wind_Speed
20 17 16 15 15 16 14 15 18 23 24 26 17 13 12 12 11 29 20 20 20 18 22 22 18 24 17 4 8 4 8 19 24 17 7 8 9 12 8 9 7 7 4 9 27
19 17 16 15 14 13 13 14 14 22 26 25 14 7 10 11 10 23 26 24 23 19 19 18 12 17 5 4 5 9 9 22 15 10 10 12 5 5 5 11 15 0 7 11 31
20 17 15 13 12 11 11 11 12 16 23 20 18 10 10 10 4 7 25 23 23 20 18 16 18 8 5 5 2 6 7 12 13 9 12 11 16 3 7 6 6 8 7 11 24
21 17 15 13 9 8 11 12 12 10 19 20 18 22 11 13 5 15 23 21 22 20 17 12 8 8 5 5 3 5 8 8 8 14 12 12 12 5 7 7 13 10 17 8 9
20 17 14 13 8 6 8 12 12 6 17 23 20 16 15 5 2 22 22 26 21 20 15 8 7 6 6 5 8 7 11 5 9 12 14 18 13 5 12 15 11 5 13 16 11
20 17 12 11 7 2 2 6 12 15 13 19 16 8 18 14 24 23 29 30 26 21 16 10 6 7 7 10 8 9 13 13 8 13 8 10 14 6 3 8 14 16 8 10 15
21 18 12 10 8 5 5 4 5 12 19 16 18 7 11 9 25 18 33 34 21 13 5 12 14 6 2 5 8 11 14 11 9 10 7 9 11 17 4 10 14 13 8 6 9
20 19 14 8 14 6 11 12 11 13 20 12 20 3 2 23 28 23 35 38 25 21 19 19 11 6 4 5 8 5 4 3 6 7 7 10 15 5 11 7 15 13 7 6 7
21 21 17 7 13 11 6 8 10 11 18 1 19 5 4 26 29 29 34 26 25 21 2 4 5 5 3 2 5 5 4 7 8 4 4 10 3 13 7 8 14 14 7 7 6
23 24 19 10 13 10 7 5 2 6 13 3 14 5 7 13 19 30 33 21 13 15 5 6 6 4 4 3 4 5 3 5 6 6 6 3 8 5 10 5 7 10 8 6 8
24 25 18 9 15 12 4 1 5 6 8 5 2 5 6 28 11 26 33 12 9 6 6 4 10 7 10 6 4 6 2 5 5 6 5 1 4 10 12 5 8 8 11 8 7
20 23 19 7 13 18 9 7 2 2 3 1 5 1 16 17 9 23 35 7 7 8 7 7 4 12 13 8 5 2 1 6 6 8 4 4 10 13 10 5 4 8 4 8 10
19 22 19 6 9 9 19 8 4 1 2 1 3 3 8 8 6 14 21 7 5 8 7 5 9 12 11 7 5 3 2 2 4 7 4 9 8 12 5 3 3 17 15 14 12
17 21 18 6 3 5 5 7 1 1 4 8 8 6 12 9 7 14 21 4 6 5 4 2 10 8 7 3 7 3 7 8 7 2 3 1 2 8 3 9 16 17 16 14 17
12 19 15 14 3 4 6 2 2 2 6 16 7 5 12 5 7 8 28 4 3 7 5 5 5 6 7 10 2 7 9 6 5 5 4 4 2 6 12 13 18 17 18 15 14
9 16 18 8 4 10 7 4 2 5 2 8 8 9 11 4 6 6 6 11 4 5 5 5 3 3 3 5 2 3 4 2 2 1 1 4 3 5 6 9 13 15 16 18 18
6 8 17 10 7 9 3 3 5 7 5 10 6 9 14 6 7 9 7 13 12 8 8 7 6 7 9 5 2 9 4 3 4 3 3 5 9 4 5 9 7 13 15 16 16
4 4 11 11 12 7 1 5 9 1 4 4 7 14 5 10 6 11 8 6 6 5 3 6 10 6 12 4 5 6 1 4 4 1 1 9 3 2 2 3 6 12 13 13 15
3 2 7 15 15 7 5 7 5 3 2 6 11 4 6 6 5 9 7 6 1 6 3 6 6 6 4 3 4 7 5 2 1 3 4 3 3 5 12 12 11 13 15 16 15
2 2 8 14 13 7 6 5 2 3 1 2 3 4 4 7 9 9 7 3 7 7 1 4 5 3 7 6 5 5 2 4 3 4 2 1 3 3 15 16 14 14 13 15 14
2 3 13 14 6 6 4 2 2 4 3 3 2 4 4 4 2 5 5 4 6 7 4 1 2 8 5 5 3 8 5 4 2 2 3 3 4 3 6 7 9 10 10 11 14
3 4 16 11 5 3 3 2 2 3 3 3 2 3 3 3 3 3 4 4 5 4 4 3 4 3 7 5 5 5 0 3 4 6 2 2 4 3 5 7 7 9 9 10 7
2 1 9 7 4 3 1 2 3 2 3 1 2 3 2 3 2 3 3 2 6 7 4 4 3 4 8 5 5 4 5 1 1 2 1 3 4 2 4 6 7 7 11 10 10
3 4 4 5 1 3 3 1 2 2 2 2 3 2 2 3 4 4 3 1 5 5 10 2 1 5 5 7 3 6 6 4 4 3 3 4 5 5 8 7 8 6 8 10 10
4 0 3 4 4 2 2 1 3 3 2 4 2 4 4 3 4 4 2 5 3 8 5 4 1 2 8 12 6 8 4 1 2 5 4 4 4 6 7 6 6 5 8 8 9
3 3 3 2 2 3 2 3 2 3 4 3 3 2 6 5 8 5 2 2 5 5 4 5 2 5 4 5 6 7 7 4 3 3 2 3 6 6 5 5 6 6 5 7 8
4 2 3 2 2 2 3 4 4 2 3 5 6 1 1 11 7 8 6 4 5 1 2 3 3 4 5 5 4 5 6 4 3 4 5 1 7 3 4 3 4 5 5 7 7
Wind_Direction
24 26 30 34 37 38 38 39 34 26 17 2 352 357 360 358 45 37 25 359 348 341 343 348 350 333 330 298 242 288 241 232 229 223 244 272 234 236 243 222 256 194 185 174 159
24 25 28 32 33 32 35 33 24 18 9 356 352 317 330 342 2 29 359 356 353 342 342 343 325 314 307 282 309 229 241 240 240 259 230 256 248 312 233 208 229 65 90 187 157
21 23 26 30 27 28 31 19 9 5 3 12 18 1 340 335 48 345 352 342 337 340 329 322 328 330 303 280 262 310 256 299 284 316 310 295 288 308 326 273 220 151 140 168 157
19 19 22 21 24 30 36 17 4 4 11 16 21 17 9 26 42 338 341 341 331 324 323 332 332 326 321 294 275 265 291 301 322 337 326 304 307 317 257 247 310 170 157 148 165
18 17 18 19 26 40 49 31 33 32 17 14 12 31 53 69 23 339 342 338 327 321 307 297 286 298 254 289 325 223 265 301 297 302 303 299 275 307 296 288 316 255 157 160 164
17 13 14 16 11 341 359 15 38 25 359 6 14 42 49 40 348 342 345 335 328 315 283 258 252 254 277 264 270 278 291 290 260 286 249 275 289 294 229 327 322 328 166 171 170
15 12 6 9 358 298 279 312 343 354 350 357 359 344 52 18 352 340 348 340 337 314 269 271 256 199 310 309 257 271 278 294 273 250 260 210 252 237 181 296 295 300 341 172 196
11 11 5 2 358 320 277 264 280 329 342 338 7 73 39 352 351 357 350 344 341 320 292 271 271 195 230 276 304 288 299 348 292 238 216 175 242 321 219 237 275 287 313 285 198
10 10 10 16 3 350 334 305 259 327 346 358 3 88 355 341 0 354 352 340 332 329 45 103 138 189 243 171 346 353 243 274 299 273 233 191 193 246 268 193 243 269 291 307 245
11 10 16 30 20 2 355 36 78 12 29 76 16 45 337 336 346 348 354 352 344 20 31 61 33 17 15 61 232 245 288 265 267 340 2 246 222 254 237 205 238 248 284 285 248
11 10 16 32 26 13 14 74 26 359 26 124 232 137 288 329 342 347 357 348 359 38 24 12 39 350 307 311 245 275 290 293 257 277 339 249 243 244 237 265 221 177 264 299 246
5 9 8 26 38 32 70 73 114 191 65 124 128 141 346 339 324 355 5 33 17 15 2 23 28 335 336 308 315 303 58 288 291 18 323 303 280 231 218 235 216 199 178 311 353
3 8 8 18 52 37 60 64 115 169 117 236 117 330 4 10 328 355 8 348 1 345 16 81 326 334 349 25 44 307 177 280 249 319 294 270 249 178 209 246 305 21 27 22 358
6 9 14 12 58 18 56 358 93 74 74 329 349 357 5 353 333 25 9 30 350 317 350 359 328 355 349 355 24 341 2 354 344 326 248 32 132 154 328 92 22 8 10 355 1
355 9 14 43 20 52 321 313 116 98 43 328 335 312 352 34 276 341 19 20 348 313 54 270 295 0 6 333 295 242 324 302 278 300 8 331 79 6 20 27 2 360 354 351 356
352 10 18 32 62 3 346 140 160 45 323 330 338 342 355 309 319 314 20 11 62 336 359 230 274 109 270 319 1 310 357 337 198 225 321 259 110 21 28 350 348 356 353 353 349
357 13 21 27 343 339 353 109 46 72 344 326 331 341 334 304 330 357 4 27 34 6 2 331 302 318 353 0 343 5 40 17 29 37 238 95 64 64 26 359 344 352 355 348 348
13 17 17 11 349 352 157 54 64 339 332 346 327 323 324 6 338 338 9 10 7 61 326 19 346 23 338 131 304 311 34 123 166 134 94 27 68 289 251 274 354 11 353 349 352
40 33 16 6 357 5 67 47 173 231 297 322 318 340 323 356 17 8 19 353 292 17 65 14 299 324 335 347 20 318 29 222 134 266 65 92 18 272 356 6 9 3 359 347 351
64 54 14 2 12 59 67 101 197 199 1 325 321 20 309 322 1 1 348 334 348 3 326 279 298 261 305 359 348 106 288 27 348 37 41 3 96 276 342 345 350 358 346 343 341
34 52 358 0 40 50 86 140 211 156 143 208 289 293 287 307 318 303 287 315 3 342 24 83 106 299 360 10 61 7 18 359 135 41 359 20 312 259 300 317 331 341 326 333 341
22 46 356 7 47 59 98 166 171 226 167 222 211 248 248 288 288 301 312 225 3 355 344 269 155 294 238 255 183 127 265 115 101 305 49 150 272 232 255 306 330 325 325 336 334
70 276 11 17 64 5 235 233 210 216 215 217 254 195 238 246 351 228 279 255 35 22 352 314 354 349 351 351 2 29 347 255 130 69 17 108 270 280 298 316 322 323 334 334 349
69 18 340 43 87 105 21 250 290 197 243 172 245 263 297 288 209 278 286 322 1 360 3 68 100 148 197 229 231 325 341 344 88 80 272 215 280 302 329 326 326 318 328 333 348
32 226 176 330 355 6 143 213 297 307 225 195 285 220 161 304 306 244 299 321 356 356 8 81 168 313 253 257 261 270 274 347 99 211 149 249 241 270 281 284 290 312 344 333 338
69 41 0 270 288 318 38 252 253 293 193 248 183 198 170 198 196 265 145 166 236 326 27 2 281 346 291 275 252 267 267 269 193 222 262 270 276 207 262 293 326 311 319 325 331
48 120 111 275 323 35 230 225 242 130 248 195 194 133 239 236 215 228 204 204 209 107 318 52 24 23 280 352 351 337 232 204 243 210 172 205 233 247 296 261 247 264 301 314 330